• In Romania
  • List of Countries
  • For 7 days
  • Water Temperature
  • Satellite Maps
  • Weather Map
  • Weather Widgets
  • user-avatar
    Login

    Hourly Weather Franceville

    Today, 15 October, Monday

    Time Temperature Precipitation Wind Pressure Humidity
    00:00 +23°C° 1.1 mm 0 mps 731 mmHg 94%
    01:00 +22°C° 0 mm 0 mps 731 mmHg 95%
    02:00 +22°C° 1.6 mm 0 mps 731 mmHg 95%
    03:00 +22°C° 1.6 mm 0 mps 731 mmHg 95%
    04:00 +24°C° 1.6 mm 1 mps 731 mmHg 95%
    05:00 +22°C° 0.2 mm 0 mps 732 mmHg 95%
    06:00 +22°C° 0.2 mm 0 mps 732 mmHg 95%
    07:00 +23°C° 0 mm 0 mps 732 mmHg 94%
    08:00 +27°C° 0.9 mm 1 mps 732 mmHg 86%
    09:00 +29°C° 0.9 mm 1 mps 732 mmHg 79%
    10:00 +31°C° 0.9 mm 1 mps 733 mmHg 71%
    11:00 +32°C° 0.4 mm 1 mps 732 mmHg 65%
    12:00 +33°C° 0.4 mm 1 mps 731 mmHg 60%
    13:00 +34°C° 0.4 mm 1 mps 731 mmHg 54%
    14:00 +34°C° 0.4 mm 1 mps 730 mmHg 56%
    15:00 +33°C° 0.4 mm 1 mps 730 mmHg 58%
    16:00 +33°C° 0.4 mm 1 mps 729 mmHg 60%
    17:00 +31°C° 1.1 mm 1 mps 729 mmHg 69%
    18:00 +29°C° 1.1 mm 1 mps 730 mmHg 78%
    19:00 +27°C° 1.1 mm 1 mps 730 mmHg 87%
    20:00 +26°C° 3.9 mm 1 mps 731 mmHg 89%
    21:00 +26°C° 3.9 mm 1 mps 732 mmHg 91%
    22:00 +26°C° 3.9 mm 1 mps 732 mmHg 94%
    23:00 +25°C° 1.4 mm 1 mps 732 mmHg 94%

    Tomorrow, 16 October, Tuesday

    Time Temperature Precipitation Wind Pressure Humidity
    00:00 +25°C° 1.4 mm 1 mps 732 mmHg 95%
    01:00 +25°C° 1.4 mm 1 mps 732 mmHg 96%
    02:00 +25°C° 0.3 mm 1 mps 732 mmHg 97%
    03:00 +25°C° 0.3 mm 1 mps 731 mmHg 97%
    04:00 +24°C° 0.3 mm 1 mps 731 mmHg 97%
    05:00 +25°C° 0 mm 1 mps 732 mmHg 97%
    06:00 +25°C° 0 mm 1 mps 732 mmHg 96%
    07:00 +25°C° 0 mm 1 mps 732 mmHg 96%
    08:00 +27°C° 0.5 mm 1 mps 733 mmHg 87%
    09:00 +29°C° 0.5 mm 1 mps 733 mmHg 78%
    10:00 +31°C° 0.5 mm 2 mps 733 mmHg 69%
    11:00 +30°C° 2.6 mm 1 mps 733 mmHg 75%
    12:00 +29°C° 2.6 mm 1 mps 732 mmHg 82%
    13:00 +29°C° 2.6 mm 1 mps 731 mmHg 89%
    14:00 +28°C° 2.2 mm 1 mps 731 mmHg 90%
    15:00 +25°C° 2.2 mm 0 mps 730 mmHg 91%
    16:00 +25°C° 2.2 mm 0 mps 730 mmHg 93%
    17:00 +24°C° 0.7 mm 0 mps 731 mmHg 94%
    18:00 +24°C° 0.7 mm 0 mps 731 mmHg 94%
    19:00 +23°C° 0.7 mm 0 mps 732 mmHg 95%
    20:00 +23°C° 1.3 mm 0 mps 732 mmHg 95%
    21:00 +23°C° 1.3 mm 0 mps 733 mmHg 95%
    22:00 +23°C° 1.3 mm 0 mps 733 mmHg 95%
    23:00 +24°C° 0.5 mm 1 mps 733 mmHg 95%

    Day after tomorrow, 17 October, Wednesday

    Time Temperature Precipitation Wind Pressure Humidity
    00:00 +24°C° 0.5 mm 1 mps 732 mmHg 96%
    01:00 +24°C° 0.5 mm 1 mps 732 mmHg 97%
    02:00 +24°C° 0.1 mm 1 mps 731 mmHg 97%
    03:00 +24°C° 0.1 mm 1 mps 731 mmHg 98%
    04:00 +23°C° 0.1 mm 1 mps 731 mmHg 98%
    05:00 +24°C° 0.3 mm 1 mps 731 mmHg 98%
    06:00 +24°C° 0.3 mm 1 mps 732 mmHg 97%
    07:00 +24°C° 0.3 mm 1 mps 732 mmHg 97%
    08:00 +25°C° 0.1 mm 1 mps 733 mmHg 91%
    09:00 +27°C° 0.1 mm 1 mps 733 mmHg 86%
    10:00 +28°C° 0.1 mm 1 mps 733 mmHg 81%
    11:00 +29°C° 0.7 mm 1 mps 733 mmHg 78%
    12:00 +29°C° 0.7 mm 2 mps 732 mmHg 75%
    13:00 +30°C° 0.7 mm 2 mps 731 mmHg 73%
    14:00 +29°C° 1.2 mm 2 mps 730 mmHg 78%
    15:00 +28°C° 1.2 mm 2 mps 730 mmHg 83%
    16:00 +28°C° 1.2 mm 1 mps 729 mmHg 88%
    17:00 +27°C° 0.4 mm 1 mps 730 mmHg 90%
    18:00 +26°C° 0.4 mm 1 mps 731 mmHg 93%
    19:00 +25°C° 0.4 mm 1 mps 731 mmHg 96%
    20:00 +25°C° 0.2 mm 1 mps 732 mmHg 96%
    21:00 +25°C° 0.2 mm 1 mps 732 mmHg 96%
    22:00 +24°C° 0.2 mm 1 mps 733 mmHg 97%
    23:00 +24°C° 0.1 mm 1 mps 732 mmHg 97%

    18 October, Thursday

    Time Temperature Precipitation Wind Pressure Humidity
    00:00 +24°C° 0.1 mm 1 mps 732 mmHg 98%
    01:00 +24°C° 0.1 mm 1 mps 731 mmHg 98%
    02:00 +24°C° 0.3 mm 1 mps 731 mmHg 98%
    03:00 +23°C° 0.3 mm 1 mps 731 mmHg 98%
    04:00 +21°C° 0.3 mm 0 mps 731 mmHg 99%
    05:00 +22°C° 0 mm 0 mps 731 mmHg 98%
    06:00 +22°C° 0 mm 0 mps 732 mmHg 98%
    07:00 +22°C° 0 mm 0 mps 732 mmHg 97%
    08:00 +23°C° 0.3 mm 0 mps 733 mmHg 93%
    09:00 +26°C° 0.3 mm 1 mps 733 mmHg 88%
    10:00 +27°C° 0.3 mm 1 mps 733 mmHg 84%
    11:00 +28°C° 1.2 mm 1 mps 732 mmHg 84%
    12:00 +28°C° 1.2 mm 1 mps 731 mmHg 84%
    13:00 +28°C° 1.2 mm 2 mps 730 mmHg 84%
    14:00 +28°C° 1.5 mm 1 mps 730 mmHg 86%
    15:00 +27°C° 1.5 mm 1 mps 730 mmHg 88%
    16:00 +27°C° 1.5 mm 1 mps 729 mmHg 90%
    17:00 +26°C° 0.8 mm 1 mps 730 mmHg 91%
    18:00 +25°C° 0.8 mm 1 mps 730 mmHg 93%
    19:00 +22°C° 0.8 mm 0 mps 731 mmHg 94%
    20:00 +22°C° 0.2 mm 0 mps 731 mmHg 94%
    21:00 +22°C° 0.2 mm 0 mps 732 mmHg 95%
    22:00 +22°C° 0.2 mm 0 mps 732 mmHg 95%
    23:00 +22°C° 0.1 mm 0 mps 731 mmHg 96%

    19 October, Friday

    Time Temperature Precipitation Wind Pressure Humidity
    00:00 +21°C° 0.1 mm 0 mps 731 mmHg 96%
    01:00 +23°C° 0.1 mm 1 mps 730 mmHg 97%
    02:00 +23°C° 0.2 mm 1 mps 730 mmHg 97%
    03:00 +21°C° 0.2 mm 0 mps 730 mmHg 97%
    04:00 +21°C° 0.2 mm 0 mps 730 mmHg 97%
    05:00 +21°C° 0.2 mm 0 mps 730 mmHg 97%
    06:00 +21°C° 0.2 mm 0 mps 731 mmHg 96%
    07:00 +22°C° 0.2 mm 0 mps 732 mmHg 95%
    08:00 +24°C° 0.2 mm 0 mps 732 mmHg 88%
    09:00 +27°C° 0.2 mm 1 mps 732 mmHg 80%
    10:00 +29°C° 0.2 mm 1 mps 733 mmHg 72%
    11:00 +29°C° 0.6 mm 1 mps 732 mmHg 73%
    12:00 +29°C° 0.6 mm 1 mps 731 mmHg 74%
    13:00 +29°C° 0.6 mm 1 mps 730 mmHg 76%
    14:00 +29°C° 0.7 mm 1 mps 730 mmHg 79%
    15:00 +28°C° 0.7 mm 1 mps 729 mmHg 83%
    16:00 +27°C° 0.7 mm 1 mps 729 mmHg 87%
    17:00 +26°C° 0.2 mm 1 mps 730 mmHg 88%
    18:00 +25°C° 0.2 mm 1 mps 730 mmHg 90%
    19:00 +25°C° 0.2 mm 1 mps 731 mmHg 91%
    20:00 +22°C° 0 mm 0 mps 731 mmHg 91%
    21:00 +22°C° 0 mm 0 mps 731 mmHg 90%
    22:00 +22°C° 0 mm 0 mps 732 mmHg 89%
    23:00 +22°C° 0 mm 0 mps 731 mmHg 89%

    20 October, Saturday

    Time Temperature Precipitation Wind Pressure Humidity
    00:00 +24°C° 0 mm 1 mps 731 mmHg 89%
    01:00 +24°C° 0 mm 1 mps 730 mmHg 89%
    02:00 +21°C° 0 mm 0 mps 730 mmHg 89%
    03:00 +21°C° 0 mm 0 mps 730 mmHg 89%
    04:00 +21°C° 0 mm 0 mps 730 mmHg 89%
    05:00 +22°C° 0 mm 0 mps 730 mmHg 87%
    06:00 +22°C° 0 mm 0 mps 731 mmHg 86%
    07:00 +23°C° 0 mm 0 mps 732 mmHg 84%
    08:00 +26°C° 0 mm 0 mps 732 mmHg 73%
    09:00 +29°C° 0 mm 0 mps 732 mmHg 63%
    10:00 +32°C° 0 mm 0 mps 732 mmHg 52%
    11:00 +34°C° 0.1 mm 1 mps 731 mmHg 49%
    12:00 +35°C° 0.1 mm 1 mps 730 mmHg 46%
    13:00 +36°C° 0.1 mm 1 mps 729 mmHg 43%
    14:00 +35°C° 0.1 mm 1 mps 729 mmHg 47%
    15:00 +34°C° 0.1 mm 1 mps 728 mmHg 52%
    16:00 +33°C° 0.1 mm 1 mps 728 mmHg 56%
    17:00 +31°C° 0.3 mm 1 mps 729 mmHg 63%
    18:00 +30°C° 0.3 mm 1 mps 729 mmHg 71%
    19:00 +28°C° 0.3 mm 1 mps 730 mmHg 78%
    20:00 +27°C° 0.2 mm 1 mps 730 mmHg 80%
    21:00 +26°C° 0.2 mm 1 mps 730 mmHg 82%
    22:00 +26°C° 0.2 mm 1 mps 730 mmHg 84%
    23:00 +26°C° 0 mm 1 mps 730 mmHg 85%
    Show more